Track COSMOS 2269 now! 10-day predictions COSMOS 2269 is classified as:
1 23000U 94011B 19047.91060125 +.00000030 +00000-0 +11038-3 0 9994 2 23000 082.5648 230.5144 0007661 130.7176 034.2391 12.61880383151991